Tracking 28341 objects as of 5-Dec-2023
HD Live streaming from Space Station
objects crossing your sky now

STARLINK-4768

Track STARLINK-4768 now!
10-day predictions
STARLINK-4768 is classified as:


NORAD ID: 53806
Int'l Code: 2022-111AK
Perigee: 545.5 km
Apogee: 548.2 km
Inclination: 53.2 °
Period: 95.4 minutes
Semi major axis: 6917 km
RCS: Unknown
Launch date: September 11, 2022
Source: United States (US)
Launch site: AIR FORCE EASTERN TEST RANGE (AFETR)
Your satellite tracking list
Your tracking list is empty




NASA's NSSDC Master Catalog

Two Line Element Set (TLE):
1 53806U 22111AK  23338.37621367 -.00000287  00000-0  97268-7 0  9990
2 53806  53.2193 358.4302 0001964  77.4148 282.7063 15.08856253 69289
Source of the keplerian elements: AFSPC